sat.trackr.live / text

‹ back to catalog

STARLINK-5897

NORAD 55931 · 2023-037T

PAYLOAD ACTIVE UNKNOWN

§ Identity

Operator
Country
US
Launch date
2023-03-17
Launch site
AFWTR
Launch vehicle
Mass (kg)
RCS (m²)

Purposes: comms

External: N2YO · Heavens-Above · Gunter

§ Orbital elements

Epoch: 2026-09-20T18:37:50.769120Z

Period
96.11 min
Inclination
70.0018°
Eccentricity
0.0003046
Mean motion
14.98318461 rev/d
Perigee alt
570.0 km
Apogee alt
574.2 km
Semi-major
6,950.2 km
B*
-1.3839e-4
RAAN
172.3977°
Arg perigee
273.7031°
Mean anomaly
86.3779°
Rev number
19,271

§ Raw data

STARLINK-58971 55931U 23037T   26263.77628205 -.00001743  00000+0 -13839-3 0  99972 55931  70.0018 172.3977 0003046 273.7031  86.3779 14.98318461192718

JSON: /api/v1/satellites/55931 · /tle

For live sub-satellite position, see the globe view (requires WebGL).

§ Visibility from observer

Set your observer location to see the next 7 days of passes ≥ 10°. The values pass through the URL so the page stays shareable.

No JS? Fill the form by hand. The geolocation button needs JavaScript.